Regional Weather Roundup
Issued by NWS Green Bay, WI

Home | Current Version | Previous Version | Text Only | Print | Product List | Glossary On
Versions: 1 2 3 4 5 6 7 8 9 10 11 12 13 14 15 16 17 18 19 20 21 22 23 24 25 26 27 28 29 30 31 32 33 34 35 36 37 38 39 40 41 42 43 44 45 46 47 48 49 50
000
ASUS43 KGRB 250510
RWRGRB

NORTH-CENTRAL AND NORTHEAST WISCONSIN REGIONAL WEATHER ROUNDUP
NATIONAL WEATHER SERVICE GREEN BAY WI
1200 AM CDT SAT OCT 25 2014

WIZ005-009-010>012-018-019-250600-
NORTH CENTRAL WISCONSIN

CITY           SKY/WX    TMP DP  RH WIND       PRES   REMARKS
IRONWOOD       MOCLDY    55  52  88 W10       29.74R
MANITOWISH WTR MOCLDY    52  52  99 SW8       29.79S
ARBOR VITAE    PTCLDY    55  52  90 SW6       29.80F
EAGLE RIVER    MOCLDY    52  51  93 SW8       29.79F
LAND O LAKES   PTCLDY    54  50  87 SW7       29.79F
RHINELANDER    CLOUDY    53  51  93 SW9       29.82F
PHILLIPS       CLOUDY    54  52  94 SW8       29.81S
ANTIGO         CLOUDY    54  52  95 W10       29.83S
TOMAHAWK       MOCLDY    54  51  90 W3        29.83S
MERRILL        CLOUDY    55  54  94 W7        29.83F
$$

WIZ013-073-250600-
NORTHEAST WISCONSIN

CITY           SKY/WX    TMP DP  RH WIND       PRES   REMARKS
IRON MOUNTAIN  PTCLDY    56  50  80 W7        29.75F
MARINETTE      CLOUDY    52  48  87 SW9       29.78F
OCONTO         CLOUDY    52  51  98 SW5       29.80F
$$

WIZ017-030-035>037-045-250600-
CENTRAL WISCONSIN

CITY           SKY/WX    TMP DP  RH WIND       PRES   REMARKS
MEDFORD        CLOUDY    54  53  97 W6        29.85S FOG
WAUSAU         CLOUDY    56  53  90 W9        29.82F
MOSINEE        CLOUDY    54  54 100 W7        29.85F
MARSHFIELD     CLOUDY    56  54  93 W10       29.85F FOG
WISC RAPIDS    CLOUDY    56  55  97 W7        29.87F FOG
STEVENS POINT  CLOUDY    55  53  92 W6        29.86F
WAUPACA        CLOUDY    58  55  90 SW6       29.84F
SHAWANO        CLOUDY    54  51  89 SW5       29.82F
CLINTONVILLE   CLOUDY    54  52  94 SW5       29.83F
$$

WIZ038-039-048-051-250600-
FOX VALLEY

CITY           SKY/WX    TMP DP  RH WIND       PRES   REMARKS
NWS GREEN BAY  MOCLDY    53  50  89 S7        29.83F
APPLETON       CLOUDY    50  48  93 SW8       29.84F
OSHKOSH        CLOUDY    56  51  84 SW6       29.85F
FOND DU LAC    CLOUDY    55  49  80 SW8       29.86F
$$

WIZ022-050-052-250600-
EAST CENTRAL WISCONSIN

CITY           SKY/WX    TMP DP  RH WIND       PRES   REMARKS
STURGEON BAY   MOCLDY    52  48  87 S9        29.82F
MANITOWOC      CLOUDY    52  50  93 SW6       29.86F
SHEBOYGAN      CLOUDY    51  49  92 S7        29.85F
$$

LMZ563-521-522-541>543-250600-
LAKESHORE

STATION/POSITION TIME  TEMP    WIND        PRES    VSBY  WAVE
                       AIR SEA DIR/SP/G                  HT/PER
                 (UTC) (F)     (DEG/KT/KT) (MB)    (MI)  (FT/S)
SHEBOYGAN LKSHOR 0500   53 51  190/  8/  9 1011.3F
KEWAUNEE LKSHORE 0500   51     190/  8/  9 1009.6F
ALGOMA MARINA    0400          220/ 14/ 16   N/A
NORTHPORT PIER   0500   51     160/  5/ 11 1009.1F
N MID LAKE BUOY  0500   50 51  210/ 19/ 25 1008.7F         5/ 6
SISTER BAY LKSHO 0400          170/ 10/ 13   N/A
CHAMBERS ISLAND  0500   53     190/  6/ 13 1009.5F
MENOMINEE LKSHOR 0500   53     190/  8/ 12 1009.9F
$$



USA.gov is the U.S. government's official web portal to all federal, state and local government web resources and services.